• In Belarus
  • List of Countries
  • For 7 days
  • Water Temperature
  • Satellite Maps
  • Weather Map
  • Weather Widgets
  • user-avatar
    Login

    Hourly Weather Korobovo

    Today, 23 April, Monday

    Time Temperature Precipitation Wind Pressure Humidity
    00:00 -4°C° 0 mm 3 mps 743 mmHg 79%
    01:00 -4°C° 0 mm 3 mps 744 mmHg 81%
    02:00 -4°C° 0 mm 3 mps 744 mmHg 83%
    03:00 -4°C° 0 mm 3 mps 744 mmHg 83%
    04:00 -4°C° 0 mm 3 mps 744 mmHg 82%
    05:00 -4°C° 0 mm 3 mps 745 mmHg 81%
    06:00 -3°C° 0 mm 4 mps 745 mmHg 71%
    07:00 -1°C° 0 mm 4 mps 745 mmHg 61%
    08:00 0°C° 0 mm 5 mps 746 mmHg 51%
    09:00 +1°C° 0 mm 5 mps 746 mmHg 48%
    10:00 +3°C° 0 mm 4 mps 746 mmHg 45%
    11:00 +4°C° 0 mm 4 mps 746 mmHg 42%
    12:00 +4°C° 0 mm 4 mps 746 mmHg 41%
    13:00 +4°C° 0 mm 4 mps 746 mmHg 41%
    14:00 +5°C° 0 mm 4 mps 746 mmHg 41%
    15:00 +5°C° 0 mm 4 mps 746 mmHg 43%
    16:00 +4°C° 0 mm 4 mps 746 mmHg 45%
    17:00 +4°C° 0 mm 3 mps 746 mmHg 47%
    18:00 +2°C° 0 mm 3 mps 746 mmHg 54%
    19:00 +2°C° 0 mm 2 mps 746 mmHg 61%
    20:00 +1°C° 0 mm 1 mps 746 mmHg 68%
    21:00 +1°C° 0 mm 1 mps 746 mmHg 71%
    22:00 0°C° 0 mm 1 mps 746 mmHg 74%
    23:00 0°C° 0 mm 1 mps 747 mmHg 77%

    Tomorrow, 24 April, Tuesday

    Time Temperature Precipitation Wind Pressure Humidity
    00:00 -1°C° 0 mm 1 mps 747 mmHg 77%
    01:00 -1°C° 0 mm 1 mps 747 mmHg 77%
    02:00 -1°C° 0 mm 1 mps 746 mmHg 78%
    03:00 -1°C° 0 mm 1 mps 747 mmHg 76%
    04:00 0°C° 0 mm 1 mps 747 mmHg 74%
    05:00 0°C° 0 mm 1 mps 747 mmHg 72%
    06:00 +2°C° 0 mm 1 mps 746 mmHg 65%
    07:00 +3°C° 0 mm 1 mps 746 mmHg 58%
    08:00 +4°C° 0 mm 2 mps 746 mmHg 50%
    09:00 +5°C° 0 mm 2 mps 746 mmHg 47%
    10:00 +6°C° 0 mm 2 mps 746 mmHg 44%
    11:00 +7°C° 0 mm 2 mps 745 mmHg 40%
    12:00 +8°C° 0 mm 2 mps 745 mmHg 40%
    13:00 +9°C° 0 mm 3 mps 744 mmHg 40%
    14:00 +9°C° 0 mm 3 mps 744 mmHg 39%
    15:00 +9°C° 0 mm 3 mps 743 mmHg 43%
    16:00 +8°C° 0 mm 2 mps 743 mmHg 47%
    17:00 +8°C° 0 mm 2 mps 742 mmHg 51%
    18:00 +7°C° 0.1 mm 2 mps 742 mmHg 56%
    19:00 +5°C° 0.1 mm 3 mps 742 mmHg 61%
    20:00 +4°C° 0.1 mm 3 mps 742 mmHg 66%
    21:00 +4°C° 0.2 mm 3 mps 741 mmHg 69%
    22:00 +4°C° 0.2 mm 3 mps 741 mmHg 71%
    23:00 +4°C° 0.2 mm 4 mps 741 mmHg 74%

    Day after tomorrow, 25 April, Wednesday

    Time Temperature Precipitation Wind Pressure Humidity
    00:00 +4°C° 0.2 mm 4 mps 740 mmHg 77%
    01:00 +4°C° 0.2 mm 4 mps 740 mmHg 81%
    02:00 +3°C° 0.2 mm 4 mps 739 mmHg 84%
    03:00 +3°C° 0.1 mm 3 mps 739 mmHg 87%
    04:00 +3°C° 0.1 mm 3 mps 738 mmHg 89%
    05:00 +3°C° 0.1 mm 3 mps 738 mmHg 92%
    06:00 +4°C° 0.1 mm 3 mps 738 mmHg 91%
    07:00 +5°C° 0.1 mm 3 mps 738 mmHg 90%
    08:00 +5°C° 0.1 mm 3 mps 738 mmHg 90%
    09:00 +7°C° 0.5 mm 3 mps 737 mmHg 89%
    10:00 +7°C° 0.5 mm 3 mps 737 mmHg 89%
    11:00 +8°C° 0.5 mm 3 mps 737 mmHg 89%
    12:00 +8°C° 0.6 mm 3 mps 737 mmHg 88%
    13:00 +8°C° 0.6 mm 3 mps 737 mmHg 86%
    14:00 +9°C° 0.6 mm 3 mps 737 mmHg 85%
    15:00 +9°C° 0.2 mm 3 mps 736 mmHg 83%
    16:00 +9°C° 0.2 mm 2 mps 736 mmHg 80%
    17:00 +10°C° 0.2 mm 2 mps 736 mmHg 78%
    18:00 +9°C° 0.2 mm 2 mps 736 mmHg 83%
    19:00 +7°C° 0.2 mm 2 mps 737 mmHg 87%
    20:00 +6°C° 0.2 mm 2 mps 737 mmHg 92%
    21:00 +6°C° 0 mm 2 mps 737 mmHg 92%
    22:00 +5°C° 0 mm 2 mps 737 mmHg 93%
    23:00 +5°C° 0 mm 2 mps 737 mmHg 94%

    26 April, Thursday

    Time Temperature Precipitation Wind Pressure Humidity
    00:00 +4°C° 0 mm 2 mps 737 mmHg 95%
    01:00 +4°C° 0 mm 2 mps 736 mmHg 95%
    02:00 +3°C° 0 mm 2 mps 736 mmHg 96%
    03:00 +3°C° 0 mm 2 mps 736 mmHg 96%
    04:00 +3°C° 0 mm 2 mps 736 mmHg 96%
    05:00 +3°C° 0 mm 2 mps 736 mmHg 96%
    06:00 +5°C° 0 mm 2 mps 736 mmHg 91%
    07:00 +6°C° 0 mm 2 mps 735 mmHg 86%
    08:00 +7°C° 0 mm 2 mps 735 mmHg 82%
    09:00 +8°C° 0.1 mm 2 mps 735 mmHg 78%
    10:00 +9°C° 0.1 mm 2 mps 735 mmHg 74%
    11:00 +10°C° 0.1 mm 2 mps 735 mmHg 70%
    12:00 +10°C° 0.4 mm 3 mps 734 mmHg 71%
    13:00 +10°C° 0.4 mm 3 mps 734 mmHg 72%
    14:00 +11°C° 0.4 mm 3 mps 734 mmHg 73%
    15:00 +10°C° 0.8 mm 3 mps 735 mmHg 77%
    16:00 +9°C° 0.8 mm 3 mps 735 mmHg 81%
    17:00 +7°C° 0.8 mm 4 mps 735 mmHg 85%
    18:00 +7°C° 0.2 mm 4 mps 736 mmHg 86%
    19:00 +6°C° 0.2 mm 4 mps 736 mmHg 88%
    20:00 +7°C° 0.2 mm 3 mps 737 mmHg 90%
    21:00 +5°C° 0 mm 3 mps 737 mmHg 90%
    22:00 +5°C° 0 mm 3 mps 738 mmHg 91%
    23:00 +4°C° 0 mm 3 mps 738 mmHg 92%

    27 April, Friday

    Time Temperature Precipitation Wind Pressure Humidity
    00:00 +4°C° 0 mm 3 mps 739 mmHg 92%
    01:00 +3°C° 0 mm 3 mps 739 mmHg 93%
    02:00 +3°C° 0 mm 3 mps 739 mmHg 94%
    03:00 +3°C° 0 mm 3 mps 740 mmHg 94%
    04:00 +3°C° 0 mm 3 mps 740 mmHg 94%
    05:00 +3°C° 0 mm 3 mps 741 mmHg 94%
    06:00 +4°C° 0 mm 3 mps 741 mmHg 88%
    07:00 +7°C° 0 mm 3 mps 741 mmHg 82%
    08:00 +8°C° 0 mm 3 mps 742 mmHg 76%
    09:00 +10°C° 0.1 mm 4 mps 742 mmHg 69%
    10:00 +11°C° 0.1 mm 4 mps 742 mmHg 62%
    11:00 +12°C° 0.1 mm 4 mps 742 mmHg 55%
    12:00 +13°C° 0 mm 4 mps 742 mmHg 52%
    13:00 +13°C° 0 mm 4 mps 742 mmHg 49%
    14:00 +14°C° 0 mm 3 mps 742 mmHg 47%
    15:00 +13°C° 0.1 mm 3 mps 741 mmHg 50%
    16:00 +14°C° 0.1 mm 2 mps 741 mmHg 54%
    17:00 +13°C° 0.1 mm 2 mps 741 mmHg 58%
    18:00 +12°C° 0.1 mm 1 mps 741 mmHg 63%
    19:00 +11°C° 0.1 mm 1 mps 742 mmHg 69%
    20:00 +9°C° 0.1 mm 1 mps 742 mmHg 74%
    21:00 +9°C° 0.4 mm 1 mps 742 mmHg 78%
    22:00 +8°C° 0.4 mm 1 mps 742 mmHg 81%
    23:00 +8°C° 0.4 mm 1 mps 742 mmHg 84%

    28 April, Saturday

    Time Temperature Precipitation Wind Pressure Humidity
    00:00 +8°C° 0.7 mm 1 mps 742 mmHg 86%
    01:00 +6°C° 0.7 mm 2 mps 742 mmHg 88%
    02:00 +6°C° 0.7 mm 2 mps 742 mmHg 90%
    03:00 +6°C° 0.3 mm 2 mps 743 mmHg 89%
    04:00 +6°C° 0.3 mm 2 mps 743 mmHg 89%
    05:00 +5°C° 0.3 mm 2 mps 743 mmHg 89%
    06:00 +7°C° 0 mm 2 mps 744 mmHg 83%
    07:00 +8°C° 0 mm 3 mps 744 mmHg 77%
    08:00 +9°C° 0 mm 3 mps 745 mmHg 72%
    09:00 +10°C° 0.1 mm 3 mps 745 mmHg 66%
    10:00 +11°C° 0.1 mm 4 mps 746 mmHg 60%
    11:00 +12°C° 0.1 mm 4 mps 746 mmHg 54%
    12:00 +13°C° 0.2 mm 4 mps 746 mmHg 52%
    13:00 +13°C° 0.2 mm 5 mps 747 mmHg 50%
    14:00 +13°C° 0.2 mm 5 mps 747 mmHg 48%
    15:00 +13°C° 0.1 mm 4 mps 747 mmHg 49%
    16:00 +12°C° 0.1 mm 4 mps 747 mmHg 51%
    17:00 +12°C° 0.1 mm 4 mps 748 mmHg 52%
    18:00 +11°C° 0 mm 3 mps 748 mmHg 58%
    19:00 +9°C° 0 mm 3 mps 748 mmHg 65%
    20:00 +7°C° 0 mm 2 mps 749 mmHg 71%
    21:00 +7°C° 0 mm 2 mps 749 mmHg 74%
    22:00 +6°C° 0 mm 2 mps 749 mmHg 77%
    23:00 +6°C° 0 mm 2 mps 750 mmHg 81%
    Show more